Overview Statistics Trail Chart Weather Telemetry Raw packets
 

This is the latest recevied weather packets stored in our database for station/object EA8BQU-10. If no packets are shown the sender has not sent any weather packets the latest 10 day(s).

<< 11 12 13 14 15 16 17 >>
Time Temp. Humidity Pressure Rain* Wind** Luminosity Snow
1788381745 24.44° C 100% 1017.7 hPa - - - -
1788380845 24.44° C 100% 1017.3 hPa - - - -
1788379945 24.44° C 100% 1017.1 hPa - - - -
1788379045 24.44° C 100% 1016.9 hPa - - - -
1788378144 24.44° C 100% 1016.9 hPa - - - -
1788377244 24.44° C 100% 1016.7 hPa - - - -
1788376344 25° C 100% 1016.6 hPa - - - -
1788375760 25° C 100% 1016.9 hPa - - - -
1788375444 25° C 100% 1016.9 hPa - - - -
1788374544 25.56° C 100% 1017 hPa - - - -
1788373644 25.56° C 100% 1017.3 hPa - - - -
1788372744 26.11° C 100% 1017.4 hPa - - - -
1788371843 26.67° C 100% 1017.7 hPa - - - -
1788370997 26.67° C 100% 1017.7 hPa - - - -
1788370943 26.67° C 100% 1017.7 hPa - - - -
1788370042 27.22° C 100% 1017.8 hPa - - - -
1788369153 27.22° C 100% 1018.2 hPa - - - -
1788368253 26.67° C 100% 1018.1 hPa - - - -
1788367583 26.67° C 100% 1018.5 hPa - - - -
1788367353 26.67° C 100% 1018.5 hPa - - - -
1788366447 26.67° C 100% 1018.3 hPa - - - -
1788365547 27.22° C 100% 1018.4 hPa - - - -
1788364653 27.22° C 100% 1018.4 hPa - - - -
1788363745 27.78° C 100% 1018.6 hPa - - - -
1788362845 26.67° C 100% 1018.4 hPa - - - -

* Rain since midnight (hover to see other rain measurements)
** Current wind speed in m/s (hover to see current wind gust speed)